When you browse on this site, cookies collect data to enhance your experience and personalize the content and advertising you see.
Visit our Privacy Policy to learn more. By continuing to use the site, you agree to this use of cookies and data.
  • In Hungary
  • List of Countries
  • For 7 days
  • Water Temperature
  • Satellite Maps
  • Weather Map
  • News
  • Weather Widgets
  • user-avatar
    Login

    Hourly Weather Krepenskiy

    Today, 20 July, Saturday

    Time Temperature Precipitation Wind Pressure Humidity
    00:00 +20°C° 0 mm 1 mps 744 mmHg 57%
    01:00 +19°C° 0 mm 2 mps 744 mmHg 61%
    02:00 +18°C° 0 mm 2 mps 744 mmHg 65%
    03:00 +19°C° 0 mm 1 mps 744 mmHg 69%
    04:00 +19°C° 0 mm 1 mps 745 mmHg 70%
    05:00 +19°C° 0 mm 1 mps 745 mmHg 72%
    06:00 +20°C° 0 mm 1 mps 746 mmHg 74%
    07:00 +20°C° 0 mm 2 mps 746 mmHg 68%
    08:00 +23°C° 0 mm 2 mps 746 mmHg 61%
    09:00 +25°C° 0 mm 2 mps 746 mmHg 55%
    10:00 +26°C° 0 mm 2 mps 746 mmHg 50%
    11:00 +27°C° 0 mm 2 mps 746 mmHg 45%
    12:00 +28°C° 0 mm 1 mps 746 mmHg 41%
    13:00 +29°C° 0 mm 1 mps 746 mmHg 38%
    14:00 +29°C° 0 mm 2 mps 746 mmHg 36%
    15:00 +30°C° 0 mm 2 mps 746 mmHg 34%
    16:00 +29°C° 0 mm 2 mps 746 mmHg 35%
    17:00 +29°C° 0 mm 2 mps 746 mmHg 35%
    18:00 +29°C° 0 mm 2 mps 746 mmHg 36%
    19:00 +27°C° 0 mm 2 mps 746 mmHg 40%
    20:00 +25°C° 0 mm 2 mps 746 mmHg 43%
    21:00 +23°C° 0 mm 2 mps 746 mmHg 46%
    22:00 +23°C° 0 mm 2 mps 746 mmHg 48%
    23:00 +21°C° 0 mm 2 mps 746 mmHg 49%

    Tomorrow, 21 July, Sunday

    Time Temperature Precipitation Wind Pressure Humidity
    00:00 +21°C° 0 mm 2 mps 746 mmHg 50%
    01:00 +20°C° 0 mm 2 mps 746 mmHg 51%
    02:00 +20°C° 0 mm 2 mps 746 mmHg 53%
    03:00 +20°C° 0 mm 1 mps 746 mmHg 55%
    04:00 +20°C° 0 mm 2 mps 746 mmHg 57%
    05:00 +20°C° 0 mm 2 mps 746 mmHg 60%
    06:00 +20°C° 0 mm 2 mps 746 mmHg 62%
    07:00 +23°C° 0 mm 2 mps 746 mmHg 57%
    08:00 +25°C° 0 mm 2 mps 746 mmHg 51%
    09:00 +27°C° 0 mm 3 mps 746 mmHg 45%
    10:00 +28°C° 0 mm 2 mps 746 mmHg 41%
    11:00 +29°C° 0 mm 2 mps 746 mmHg 38%
    12:00 +30°C° 0 mm 2 mps 746 mmHg 34%
    13:00 +30°C° 0 mm 2 mps 746 mmHg 35%
    14:00 +30°C° 0 mm 2 mps 745 mmHg 36%
    15:00 +30°C° 0 mm 1 mps 745 mmHg 37%
    16:00 +29°C° 0 mm 2 mps 745 mmHg 40%
    17:00 +28°C° 0 mm 2 mps 745 mmHg 44%
    18:00 +27°C° 0 mm 2 mps 746 mmHg 48%
    19:00 +26°C° 0 mm 2 mps 746 mmHg 54%
    20:00 +25°C° 0 mm 2 mps 746 mmHg 59%
    21:00 +23°C° 0 mm 2 mps 745 mmHg 65%
    22:00 +21°C° 0 mm 2 mps 745 mmHg 71%
    23:00 +20°C° 0 mm 2 mps 745 mmHg 76%

    Day after tomorrow, 22 July, Monday

    Time Temperature Precipitation Wind Pressure Humidity
    00:00 +19°C° 0 mm 2 mps 745 mmHg 82%
    01:00 +19°C° 0 mm 2 mps 745 mmHg 84%
    02:00 +18°C° 0 mm 2 mps 745 mmHg 85%
    03:00 +19°C° 0 mm 1 mps 745 mmHg 86%
    04:00 +19°C° 0 mm 1 mps 745 mmHg 84%
    05:00 +20°C° 0 mm 1 mps 745 mmHg 83%
    06:00 +20°C° 0 mm 1 mps 745 mmHg 81%
    07:00 +22°C° 0 mm 1 mps 745 mmHg 72%
    08:00 +24°C° 0 mm 1 mps 745 mmHg 64%
    09:00 +26°C° 0 mm 1 mps 745 mmHg 55%
    10:00 +27°C° 0 mm 1 mps 745 mmHg 50%
    11:00 +29°C° 0 mm 1 mps 745 mmHg 45%
    12:00 +30°C° 0 mm 1 mps 745 mmHg 40%
    13:00 +30°C° 0 mm 1 mps 745 mmHg 40%
    14:00 +30°C° 0 mm 1 mps 744 mmHg 39%
    15:00 +30°C° 0 mm 1 mps 744 mmHg 38%
    16:00 +30°C° 0 mm 1 mps 744 mmHg 39%
    17:00 +30°C° 0 mm 2 mps 744 mmHg 40%
    18:00 +30°C° 0 mm 2 mps 744 mmHg 40%
    19:00 +28°C° 0 mm 1 mps 744 mmHg 44%
    20:00 +26°C° 0 mm 1 mps 744 mmHg 48%
    21:00 +22°C° 0 mm 0 mps 744 mmHg 52%
    22:00 +24°C° 0 mm 1 mps 743 mmHg 54%
    23:00 +23°C° 0 mm 1 mps 743 mmHg 55%

    23 July, Tuesday

    Time Temperature Precipitation Wind Pressure Humidity
    00:00 +23°C° 0 mm 1 mps 743 mmHg 57%
    01:00 +22°C° 0 mm 1 mps 743 mmHg 58%
    02:00 +22°C° 0 mm 1 mps 743 mmHg 60%
    03:00 +22°C° 0 mm 1 mps 742 mmHg 61%
    04:00 +22°C° 0 mm 1 mps 742 mmHg 63%
    05:00 +22°C° 0 mm 1 mps 742 mmHg 66%
    06:00 +20°C° 0 mm 0 mps 742 mmHg 68%
    07:00 +24°C° 0 mm 1 mps 742 mmHg 62%
    08:00 +26°C° 0 mm 1 mps 742 mmHg 57%
    09:00 +28°C° 0 mm 1 mps 742 mmHg 51%
    10:00 +29°C° 0 mm 1 mps 742 mmHg 48%
    11:00 +29°C° 0 mm 1 mps 742 mmHg 44%
    12:00 +30°C° 0 mm 1 mps 742 mmHg 41%
    13:00 +30°C° 0 mm 2 mps 742 mmHg 40%
    14:00 +30°C° 0 mm 2 mps 741 mmHg 40%
    15:00 +30°C° 0 mm 2 mps 741 mmHg 39%
    16:00 +30°C° 0 mm 2 mps 741 mmHg 40%
    17:00 +30°C° 0 mm 1 mps 741 mmHg 40%
    18:00 +30°C° 0 mm 1 mps 741 mmHg 41%
    19:00 +29°C° 0 mm 1 mps 741 mmHg 44%
    20:00 +27°C° 0 mm 1 mps 741 mmHg 47%
    21:00 +26°C° 0 mm 2 mps 741 mmHg 49%
    22:00 +25°C° 0 mm 2 mps 741 mmHg 55%
    23:00 +24°C° 0 mm 3 mps 741 mmHg 60%

    24 July, Wednesday

    Time Temperature Precipitation Wind Pressure Humidity
    00:00 +24°C° 0 mm 3 mps 741 mmHg 65%
    01:00 +22°C° 0 mm 3 mps 741 mmHg 68%
    02:00 +21°C° 0 mm 2 mps 740 mmHg 70%
    03:00 +21°C° 0 mm 2 mps 740 mmHg 73%
    04:00 +21°C° 0.2 mm 2 mps 740 mmHg 74%
    05:00 +21°C° 0.2 mm 2 mps 740 mmHg 76%
    06:00 +21°C° 0.2 mm 2 mps 740 mmHg 77%
    07:00 +23°C° 0.3 mm 2 mps 740 mmHg 75%
    08:00 +23°C° 0.3 mm 2 mps 740 mmHg 72%
    09:00 +24°C° 0.3 mm 2 mps 740 mmHg 70%
    10:00 +24°C° 0.5 mm 3 mps 740 mmHg 70%
    11:00 +24°C° 0.5 mm 3 mps 740 mmHg 70%
    12:00 +25°C° 0.5 mm 4 mps 740 mmHg 70%
    13:00 +23°C° 3.9 mm 4 mps 740 mmHg 77%
    14:00 +21°C° 3.9 mm 4 mps 740 mmHg 83%
    15:00 +20°C° 3.9 mm 4 mps 740 mmHg 90%
    16:00 +21°C° 1.4 mm 5 mps 740 mmHg 89%
    17:00 +21°C° 1.4 mm 5 mps 739 mmHg 87%
    18:00 +21°C° 1.4 mm 6 mps 739 mmHg 86%
    19:00 +21°C° 2 mm 6 mps 739 mmHg 87%
    20:00 +20°C° 2 mm 5 mps 739 mmHg 89%
    21:00 +20°C° 2 mm 5 mps 739 mmHg 90%
    22:00 +19°C° 2.2 mm 5 mps 739 mmHg 91%
    23:00 +19°C° 2.2 mm 4 mps 739 mmHg 92%

    25 July, Thursday

    Time Temperature Precipitation Wind Pressure Humidity
    00:00 +19°C° 2.2 mm 4 mps 739 mmHg 93%
    01:00 +19°C° 0.8 mm 4 mps 739 mmHg 93%
    02:00 +19°C° 0.8 mm 4 mps 739 mmHg 93%
    03:00 +19°C° 0.8 mm 4 mps 738 mmHg 93%
    04:00 +19°C° 0.6 mm 3 mps 738 mmHg 93%
    05:00 +19°C° 0.6 mm 3 mps 738 mmHg 93%
    06:00 +19°C° 0.6 mm 3 mps 739 mmHg 92%
    07:00 +20°C° 0.1 mm 3 mps 739 mmHg 91%
    08:00 +20°C° 0.1 mm 4 mps 739 mmHg 89%
    09:00 +21°C° 0.1 mm 4 mps 739 mmHg 87%
    10:00 +23°C° 0.2 mm 4 mps 739 mmHg 80%
    11:00 +25°C° 0.2 mm 5 mps 739 mmHg 74%
    12:00 +27°C° 0.2 mm 5 mps 739 mmHg 67%
    13:00 +24°C° 1.8 mm 6 mps 739 mmHg 73%
    14:00 +23°C° 1.8 mm 7 mps 740 mmHg 79%
    15:00 +21°C° 1.8 mm 8 mps 740 mmHg 85%
    16:00 +21°C° 1.2 mm 7 mps 740 mmHg 86%
    17:00 +20°C° 1.2 mm 6 mps 740 mmHg 87%
    18:00 +20°C° 1.2 mm 5 mps 740 mmHg 88%
    19:00 +20°C° 0.2 mm 5 mps 740 mmHg 90%
    20:00 +19°C° 0.2 mm 4 mps 740 mmHg 91%
    21:00 +19°C° 0.2 mm 4 mps 741 mmHg 92%
    22:00 +19°C° 0.2 mm 3 mps 741 mmHg 92%
    23:00 +19°C° 0.2 mm 3 mps 741 mmHg 92%
    Show more